LOT29M EPWA-EPWR

Flight info

Callsign LOT29M
Flight time 0h 38m
Altitude 24000
Route SOXER N869 UVIVI
Aircraft E75L/M-SDE3GILORVW/S

Departure

Time 2026-05-06 08:33
Airport Warsaw Chopin Airport (EPWA)

Arrival

Time 2026-05-06 09:12
Airport Copernicus Wrocław Airport (EPWR)
Time Latitude Longitude Altitude Speed Heading
2026-05-06 08:03 52.17341 20.96554 331 ft 0 kts 242°
2026-05-06 08:28 52.17340 20.96550 334 ft 2 kts 242°
2026-05-06 08:28 52.17330 20.96512 333 ft 6 kts 260°
2026-05-06 08:28 52.17355 20.96433 334 ft 10 kts 322°
2026-05-06 08:29 52.17436 20.96362 334 ft 16 kts 330°
2026-05-06 08:29 52.17547 20.96263 333 ft 20 kts 331°
2026-05-06 08:29 52.17583 20.96109 335 ft 8 kts 258°
2026-05-06 08:29 52.17575 20.96090 334 ft 0 kts 200°
2026-05-06 08:31 52.17534 20.96061 333 ft 14 kts 204°
2026-05-06 08:31 52.17455 20.95995 336 ft 10 kts 208°
2026-05-06 08:31 52.17419 20.95976 336 ft 5 kts 172°
2026-05-06 08:32 52.17396 20.95994 336 ft 1 kts 149°
2026-05-06 08:32 52.17383 20.96006 336 ft 5 kts 149°
2026-05-06 08:32 52.17135 20.96221 331 ft 80 kts 152°
2026-05-06 08:32 52.16435 20.96833 354 ft 144 kts 153°
2026-05-06 08:33 52.15494 20.97704 943 ft 158 kts 153°
2026-05-06 08:33 52.14497 20.98348 1941 ft 156 kts 165°
2026-05-06 08:33 52.13505 20.99217 2650 ft 168 kts 153°
2026-05-06 08:33 52.12379 20.99550 3340 ft 171 kts 197°
2026-05-06 08:34 52.11245 20.98784 4075 ft 183 kts 202°
2026-05-06 08:34 52.08678 20.96775 5408 ft 222 kts 206°
2026-05-06 08:34 52.07259 20.95577 6102 ft 237 kts 206°
2026-05-06 08:35 52.05766 20.94286 6778 ft 249 kts 210°
2026-05-06 08:35 52.04570 20.92265 7568 ft 260 kts 240°
2026-05-06 08:35 52.04024 20.89437 8422 ft 266 kts 253°
2026-05-06 08:35 52.03675 20.86451 9224 ft 271 kts 256°
2026-05-06 08:36 52.03414 20.83398 9994 ft 275 kts 261°
2026-05-06 08:36 52.03300 20.80216 10445 ft 290 kts 263°
2026-05-06 08:36 52.03215 20.76867 10932 ft 302 kts 264°
2026-05-06 08:36 52.03139 20.73436 11665 ft 304 kts 264°
2026-05-06 08:37 52.03058 20.69983 12443 ft 307 kts 264°
2026-05-06 08:37 52.02973 20.66497 13236 ft 311 kts 264°
2026-05-06 08:37 52.02886 20.63005 13974 ft 314 kts 264°
2026-05-06 08:37 52.02795 20.59439 14707 ft 318 kts 264°
2026-05-06 08:38 52.02711 20.55828 15458 ft 321 kts 265°
2026-05-06 08:38 52.02769 20.52167 16209 ft 326 kts 268°
2026-05-06 08:38 52.02867 20.48506 16932 ft 330 kts 269°
2026-05-06 08:38 52.02977 20.44767 17700 ft 333 kts 269°
2026-05-06 08:39 52.03090 20.40976 18419 ft 337 kts 269°
2026-05-06 08:39 52.03202 20.37144 19129 ft 340 kts 269°
2026-05-06 08:39 52.03313 20.33282 19882 ft 343 kts 269°
2026-05-06 08:39 52.03424 20.29389 20616 ft 347 kts 269°
2026-05-06 08:40 52.03534 20.25498 21306 ft 351 kts 269°
2026-05-06 08:40 52.03644 20.21525 21983 ft 354 kts 269°
2026-05-06 08:40 52.03754 20.17514 22637 ft 357 kts 269°
2026-05-06 08:40 52.03863 20.13467 23262 ft 360 kts 269°
2026-05-06 08:41 52.03973 20.09379 23576 ft 359 kts 269°
2026-05-06 08:41 52.04081 20.05307 23662 ft 362 kts 269°
2026-05-06 08:41 52.04186 20.01214 23712 ft 363 kts 269°
2026-05-06 08:41 52.04120 19.97125 23733 ft 360 kts 261°
2026-05-06 08:42 52.03744 19.93109 23748 ft 358 kts 257°
2026-05-06 08:42 52.03252 19.89192 23752 ft 358 kts 255°
2026-05-06 08:42 52.02580 19.85305 23743 ft 356 kts 249°
2026-05-06 08:42 52.01787 19.81498 23743 ft 356 kts 249°
2026-05-06 08:43 52.00971 19.77710 23751 ft 356 kts 249°
2026-05-06 08:43 52.00146 19.73915 23753 ft 356 kts 249°
2026-05-06 08:43 51.99319 19.70130 23750 ft 355 kts 249°
2026-05-06 08:43 51.98496 19.66353 23752 ft 355 kts 249°
2026-05-06 08:44 51.97679 19.62626 23790 ft 355 kts 249°
2026-05-06 08:44 51.96850 19.58841 23792 ft 355 kts 249°
2026-05-06 08:44 51.96021 19.55065 23806 ft 355 kts 249°
2026-05-06 08:44 51.95193 19.51290 23809 ft 355 kts 249°
2026-05-06 08:45 51.94361 19.47514 23786 ft 354 kts 249°
2026-05-06 08:45 51.93540 19.43787 23769 ft 354 kts 249°
2026-05-06 08:45 51.92709 19.40029 23758 ft 354 kts 249°
2026-05-06 08:45 51.91879 19.36278 23761 ft 353 kts 249°
2026-05-06 08:46 51.91047 19.32521 23768 ft 353 kts 249°
2026-05-06 08:46 51.90215 19.28771 23768 ft 353 kts 249°
2026-05-06 08:46 51.89391 19.25072 23760 ft 353 kts 249°
2026-05-06 08:46 51.88558 19.21334 23767 ft 352 kts 249°
2026-05-06 08:47 51.87708 19.17611 23768 ft 352 kts 248°
2026-05-06 08:47 51.86876 19.13861 23765 ft 353 kts 249°
2026-05-06 08:47 51.86061 19.10110 23763 ft 353 kts 249°
2026-05-06 08:47 51.85244 19.06367 23762 ft 352 kts 249°
2026-05-06 08:48 51.84427 19.02627 23761 ft 352 kts 249°
2026-05-06 08:48 51.83618 18.98932 23756 ft 352 kts 249°
2026-05-06 08:48 51.82797 18.95189 23753 ft 352 kts 249°
2026-05-06 08:48 51.81976 18.91457 23757 ft 352 kts 249°
2026-05-06 08:49 51.81155 18.87725 23756 ft 352 kts 249°
2026-05-06 08:49 51.80332 18.83986 23756 ft 352 kts 249°
2026-05-06 08:49 51.79507 18.80248 23751 ft 352 kts 249°
2026-05-06 08:49 51.78693 18.76566 23757 ft 352 kts 249°
2026-05-06 08:50 51.77866 18.72830 23755 ft 352 kts 249°
2026-05-06 08:50 51.77037 18.69101 23754 ft 352 kts 249°
2026-05-06 08:50 51.76210 18.65375 23760 ft 352 kts 249°
2026-05-06 08:50 51.75392 18.61704 23762 ft 351 kts 249°
2026-05-06 08:51 51.74563 18.57991 23758 ft 352 kts 249°
2026-05-06 08:51 51.73732 18.54268 23757 ft 352 kts 249°
2026-05-06 08:51 51.72899 18.50549 23762 ft 351 kts 249°
2026-05-06 08:51 51.72068 18.46840 23756 ft 351 kts 249°
2026-05-06 08:52 51.71242 18.43166 23754 ft 352 kts 249°
2026-05-06 08:52 51.70405 18.39446 23758 ft 352 kts 249°
2026-05-06 08:52 51.69569 18.35741 23759 ft 352 kts 249°
2026-05-06 08:52 51.68731 18.32031 23760 ft 351 kts 248°
2026-05-06 08:53 51.67903 18.28370 23760 ft 351 kts 248°
2026-05-06 08:53 51.67064 18.24670 23759 ft 351 kts 248°
2026-05-06 08:53 51.66226 18.20977 23760 ft 351 kts 248°
2026-05-06 08:53 51.65383 18.17269 23758 ft 351 kts 248°
2026-05-06 08:54 51.64541 18.13575 23763 ft 351 kts 248°
2026-05-06 08:54 51.63697 18.09879 23760 ft 351 kts 248°
2026-05-06 08:54 51.62852 18.06184 23755 ft 351 kts 248°
2026-05-06 08:54 51.62007 18.02492 23762 ft 351 kts 248°
2026-05-06 08:55 51.61161 17.98803 23764 ft 351 kts 248°
2026-05-06 08:55 51.60326 17.95174 23758 ft 350 kts 248°
2026-05-06 08:55 51.59190 17.91739 23755 ft 349 kts 233°
2026-05-06 08:55 51.57643 17.88717 23768 ft 349 kts 227°
2026-05-06 08:56 51.55949 17.85907 23758 ft 349 kts 225°
2026-05-06 08:56 51.54206 17.83194 23282 ft 347 kts 224°
2026-05-06 08:56 51.52393 17.80613 22138 ft 353 kts 219°
2026-05-06 08:56 51.50464 17.78216 21282 ft 353 kts 218°
2026-05-06 08:57 51.48519 17.75819 20531 ft 350 kts 218°
2026-05-06 08:57 51.46598 17.73480 20052 ft 341 kts 218°
2026-05-06 08:57 51.44743 17.71226 19754 ft 327 kts 218°
2026-05-06 08:57 51.42968 17.69069 19262 ft 311 kts 217°
2026-05-06 08:58 51.41255 17.66990 18446 ft 309 kts 217°
2026-05-06 08:58 51.39584 17.64961 18038 ft 303 kts 217°
2026-05-06 08:58 51.37904 17.62928 17506 ft 301 kts 217°
2026-05-06 08:58 51.36238 17.60912 16973 ft 298 kts 218°
2026-05-06 08:59 51.34588 17.58921 16474 ft 295 kts 217°
2026-05-06 08:59 51.32895 17.57081 15986 ft 293 kts 213°
2026-05-06 08:59 51.31164 17.55390 15494 ft 290 kts 212°
2026-05-06 08:59 51.29416 17.53878 15024 ft 289 kts 207°
2026-05-06 09:00 51.27577 17.52584 14555 ft 287 kts 206°
2026-05-06 09:00 51.25737 17.51336 14103 ft 284 kts 205°
2026-05-06 09:00 51.23941 17.50133 13676 ft 282 kts 206°
2026-05-06 09:00 51.22135 17.48920 13207 ft 279 kts 206°
2026-05-06 09:01 51.20349 17.47723 12728 ft 277 kts 206°
2026-05-06 09:01 51.18573 17.46533 12237 ft 275 kts 205°
2026-05-06 09:01 51.16811 17.45356 11763 ft 273 kts 205°
2026-05-06 09:01 51.15058 17.44185 11311 ft 272 kts 205°
2026-05-06 09:02 51.13339 17.43038 10870 ft 270 kts 205°
2026-05-06 09:02 51.11613 17.41886 10417 ft 268 kts 205°
2026-05-06 09:02 51.09897 17.40743 9988 ft 267 kts 205°
2026-05-06 09:02 51.08739 17.39970 9713 ft 272 kts 205°
2026-05-06 09:03 51.06968 17.38832 9224 ft 274 kts 204°
2026-05-06 09:03 51.05260 17.37640 8728 ft 267 kts 207°
2026-05-06 09:03 51.03637 17.36392 8221 ft 245 kts 208°
2026-05-06 09:03 51.02274 17.35323 7795 ft 233 kts 209°
2026-05-06 09:04 51.00829 17.34180 7357 ft 225 kts 209°
2026-05-06 09:04 50.99444 17.33093 6957 ft 225 kts 209°
2026-05-06 09:04 50.98162 17.31722 6572 ft 223 kts 232°
2026-05-06 09:04 50.97627 17.29451 6203 ft 225 kts 268°
2026-05-06 09:05 50.98075 17.27094 5867 ft 224 kts 295°
2026-05-06 09:05 50.98847 17.25074 5512 ft 205 kts 298°
2026-05-06 09:05 50.99600 17.23228 5136 ft 194 kts 298°
2026-05-06 09:05 51.00321 17.21471 4799 ft 186 kts 298°
2026-05-06 09:06 51.00820 17.19633 4475 ft 180 kts 283°
2026-05-06 09:06 51.01253 17.17781 4224 ft 183 kts 291°
2026-05-06 09:06 51.01840 17.15981 3974 ft 182 kts 292°
2026-05-06 09:06 51.02373 17.14219 3821 ft 166 kts 290°
2026-05-06 09:07 51.02852 17.12654 3584 ft 149 kts 292°
2026-05-06 09:07 51.03298 17.11230 3345 ft 140 kts 290°
2026-05-06 09:07 51.03716 17.09872 3129 ft 132 kts 290°
2026-05-06 09:07 51.04112 17.08589 2928 ft 131 kts 289°
2026-05-06 09:08 51.04513 17.07289 2787 ft 131 kts 290°
2026-05-06 09:08 51.04923 17.05965 2644 ft 134 kts 290°
2026-05-06 09:08 51.05328 17.04644 2464 ft 133 kts 290°
2026-05-06 09:08 51.05737 17.03324 2314 ft 132 kts 290°
2026-05-06 09:09 51.06137 17.02020 2095 ft 130 kts 291°
2026-05-06 09:09 51.06535 17.00731 1920 ft 131 kts 290°
2026-05-06 09:09 51.06939 16.99431 1779 ft 132 kts 291°
2026-05-06 09:09 51.07345 16.98103 1581 ft 134 kts 289°
2026-05-06 09:10 51.07753 16.96784 1412 ft 138 kts 291°
2026-05-06 09:10 51.08186 16.95372 1242 ft 141 kts 291°
2026-05-06 09:10 51.08602 16.94012 994 ft 132 kts 291°
2026-05-06 09:10 51.09011 16.92692 863 ft 133 kts 290°
2026-05-06 09:11 51.09409 16.91380 730 ft 132 kts 292°
2026-05-06 09:11 51.09812 16.90075 489 ft 132 kts 294°
2026-05-06 09:11 51.10197 16.88837 409 ft 111 kts 292°
2026-05-06 09:11 51.10487 16.87862 410 ft 80 kts 297°
2026-05-06 09:12 51.10656 16.87314 408 ft 31 kts 298°
2026-05-06 09:12 51.10765 16.87282 408 ft 22 kts 25°
2026-05-06 09:12 51.10797 16.87307 410 ft 0 kts 25°
2026-05-06 09:13 51.10800 16.87309 410 ft 2 kts 25°
2026-05-06 09:13 51.10854 16.87350 409 ft 11 kts 25°
2026-05-06 09:13 51.10934 16.87414 407 ft 14 kts 39°
2026-05-06 09:13 51.10926 16.87548 410 ft 14 kts 115°
2026-05-06 09:14 51.10878 16.87705 408 ft 17 kts 116°
2026-05-06 09:14 51.10827 16.87871 409 ft 15 kts 116°
2026-05-06 09:14 51.10818 16.87946 410 ft 5 kts 50°
2026-05-06 09:14 51.10834 16.87963 408 ft 2 kts 28°
2026-05-06 09:15 51.10856 16.87980 406 ft 5 kts 26°
2026-05-06 09:15 51.10870 16.87991 410 ft 3 kts 26°
2026-05-06 09:15 51.10872 16.87992 410 ft 0 kts 26°